CW1120 Weather Reports


time (UTC)temp
C
wind
direction
speed
KPH
gust
KPH
rain 1hr
cm
rain 24hr
cm
rain mn
cm
humidity
%
barometer
mb
20260502163137 15 221 11.3 12.9 0.00 0.00 0.00 81 1010.5
20260502162127 15 217 8.0 14.5 0.00 0.00 0.00 82 1010.5
20260502161128 15 241 11.3 17.7 0.00 0.00 0.00 81 1010.7
20260502160146 15 220 14.5 19.3 0.00 0.00 0.00 79 1010.7
20260502152204 17 163 12.9 17.7 0.00 0.00 0.00 76 1010.8
20260502151206 16 194 11.3 22.5 0.00 0.00 0.00 76 1010.8
20260502150138 16 232 9.7 20.9 0.00 0.00 0.00 77 1010.9
20260502130130 16 217 16.1 27.4 0.00 0.00 0.00 76 1012.5
20260502123129 17 201 24.1 30.6 0.00 0.00 0.00 73 1012.7
20260502122130 17 225 12.9 24.1 0.00 0.00 0.00 73 1012.8
20260502121140 17 197 16.1 22.5 0.00 0.00 0.00 72 1012.9
20260502120132 17 235 17.7 25.7 0.00 0.00 0.00 73 1013.0
20260502115149 17 196 19.3 25.7 0.00 0.00 0.00 73 1013.0
20260502114142 17 212 12.9 27.4 0.00 0.00 0.00 73 1013.1
20260502113142 17 217 16.1 24.1 0.00 0.00 0.00 74 1013.3
20260502112135 17 242 14.5 22.5 0.00 0.00 0.00 73 1013.4
20260502111126 17 197 14.5 25.7 0.00 0.00 0.00 72 1013.5
20260502110145 17 215 17.7 22.5 0.00 0.00 0.00 73 1013.6
20260502105136 16 228 14.5 25.7 0.00 0.00 0.00 73 1013.6
20260502104128 16 234 17.7 30.6 0.00 0.00 0.00 72 1013.7
20260502103130 16 227 17.7 25.7 0.00 0.00 0.00 70 1013.8
20260502102135 16 244 14.5 24.1 0.00 0.00 0.00 72 1014.0
20260502101154 16 210 11.3 24.1 0.00 0.00 0.00 73 1014.0
20260502100143 16 196 12.9 24.1 0.00 0.00 0.00 72 1014.0
20260502091143 15 204 14.5 30.6 0.00 0.00 0.00 74 1014.5
20260502090133 15 222 19.3 29.0 0.00 0.00 0.00 75 1014.7
20260502071145 13 189 14.5 27.4 0.00 0.00 0.00 79 1015.0
20260502070145 13 190 14.5 27.4 0.00 0.00 0.00 78 1015.0
20260502065137 13 178 14.5 32.2 0.00 0.00 0.00 79 1015.1
20260502064144 13 186 14.5 22.5 0.00 0.00 0.00 79 1015.1
20260502063140 13 259 12.9 29.0 0.00 0.00 0.00 79 1015.2
20260502062130 13 199 14.5 20.9 0.00 0.00 0.00 79 1015.3
20260502061144 13 145 9.7 22.5 0.00 0.00 0.00 82 1015.3
20260502060128 12 203 11.3 19.3 0.00 0.00 0.00 84 1015.4
20260502055129 12 187 9.7 17.7 0.00 0.00 0.00 88 1015.3
20260502054138 11 172 9.7 16.1 0.00 0.00 0.00 93 1015.4
20260502053131 11 192 6.4 16.1 0.00 0.00 0.00 96 1015.4
20260502052133 10 145 4.8 14.5 0.00 0.00 0.00 97 1015.5
20260502051151 10 166 4.8 11.3 0.00 0.00 0.00 98 1015.6
20260502050138 8 190 4.8 8.0 0.00 0.00 0.00 98 1015.7
20260502045125 7 169 1.6 6.4 0.00 0.00 0.00 98 1015.8
20260502044126 7 178 3.2 9.7 0.00 0.00 0.00 97 1016.0
20260502043131 7 138 3.2 6.4 0.00 0.00 0.00 97 1016.2
20260502042134 7 95 1.6 4.8 0.00 0.00 0.00 96 1016.4
20260502041126 7 117 1.6 9.7 0.00 0.00 0.00 97 1016.5
20260502040146 7 143 3.2 8.0 0.00 0.00 0.00 96 1016.6
20260502035138 7 90 3.2 6.4 0.00 0.00 0.00 97 1016.6
20260502034129 7 105 3.2 9.7 0.00 0.00 0.00 97 1016.8
20260502033149 7 107 3.2 9.7 0.00 0.00 0.00 97 1017.0
20260502032140 6 131 4.8 8.0 0.00 0.00 0.00 96 1017.3
20260502031134 6 147 3.2 6.4 0.00 0.00 0.00 96 1017.4
20260502030151 6 122 3.2 6.4 0.00 0.00 0.00 96 1017.6
20260502025141 6 136 3.2 4.8 0.00 0.00 0.00 96 1017.7
20260502024143 6 125 1.6 4.8 0.00 0.00 0.00 96 1017.8
20260502023135 6 125 3.2 4.8 0.00 0.00 0.00 95 1017.9
20260502022128 6 148 1.6 4.8 0.00 0.00 0.00 95 1018.1
20260502021146 6 146 1.6 6.4 0.00 0.00 0.00 95 1018.2
20260502020140 6 142 3.2 4.8 0.00 0.00 0.00 95 1018.4
20260502015131 6 157 1.6 1.6 0.00 0.10 0.00 94 1018.5
20260502014152 6 157 0.0 9.7 0.00 0.10 0.00 94 1018.7
20260502013144 6 155 3.2 6.4 0.00 0.10 0.00 95 1018.8
20260502012133 6 127 4.8 9.7 0.00 0.10 0.00 95 1018.9
20260502011135 6 136 4.8 6.4 0.00 0.10 0.00 94 1018.9
20260502010126 6 159 0.0 4.8 0.00 0.10 0.00 94 1019.2
20260502005146 6 124 0.0 4.8 0.00 0.10 0.00 94 1019.3
20260502004138 6 167 3.2 9.7 0.00 0.10 0.00 94 1019.3
20260502003159 6 163 1.6 9.7 0.00 0.10 0.00 94 1019.5
20260502002132 6 167 3.2 11.3 0.00 0.10 0.00 94 1019.5
20260502001154 6 173 4.8 11.3 0.00 0.10 0.00 93 1019.7
20260502000145 6 164 3.2 8.0 0.00 0.10 0.00 93 1019.7
20260501235140 6 163 4.8 8.0 0.00 0.10 0.00 92 1019.8
20260501234131 6 167 4.8 8.0 0.00 0.10 0.00 92 1019.9
20260501233143 6 152 1.6 4.8 0.00 0.10 0.00 92 1020.1
20260501232204 7 163 1.6 6.4 0.00 0.10 0.00 92 1020.1
20260501231204 7 169 3.2 6.4 0.00 0.10 0.00 91 1020.3
20260501230153 7 151 1.6 8.0 0.00 0.10 0.00 91 1020.5
20260501225132 7 168 4.8 8.0 0.00 0.10 0.03 90 1020.6
20260501224139 7 176 3.2 8.0 0.00 0.10 0.03 90 1020.8
20260501223202 7 214 4.8 6.4 0.00 0.10 0.03 89 1020.9
20260501222135 7 228 3.2 6.4 0.00 0.10 0.03 88 1020.9
20260501221139 8 250 3.2 6.4 0.00 0.10 0.03 86 1020.9
20260501220206 9 229 3.2 11.3 0.00 0.10 0.03 86 1021.0
20260501215135 9 233 6.4 12.9 0.00 0.10 0.03 89 1021.0
20260501214127 7 223 6.4 9.7 0.00 0.10 0.03 83 1021.1
20260501213128 7 250 1.6 3.2 0.00 0.10 0.03 82 1021.2
20260501212137 8 182 0.0 4.8 0.00 0.10 0.03 82 1021.2
20260501211140 8 215 0.0 3.2 0.00 0.10 0.03 81 1021.3
20260501210155 8 215 1.6 8.0 0.00 0.10 0.03 79 1021.3
20260501205158 9 196 3.2 11.3 0.00 0.10 0.03 77 1021.3
20260501204128 10 194 4.8 9.7 0.00 0.10 0.03 75 1021.4
20260501203150 11 175 4.8 9.7 0.00 0.10 0.03 74 1021.5
20260501202141 11 200 6.4 14.5 0.00 0.10 0.03 72 1021.6
20260501201145 11 200 4.8 12.9 0.00 0.10 0.03 72 1021.6
20260501200156 11 205 6.4 17.7 0.00 0.10 0.03 73 1021.7
20260501195138 11 203 8.0 12.9 0.00 0.10 0.03 73 1021.8
20260501194129 11 182 4.8 8.0 0.00 0.10 0.03 72 1021.8
20260501193130 11 202 3.2 12.9 0.00 0.10 0.03 73 1021.9
20260501192142 11 191 3.2 9.7 0.00 0.10 0.03 72 1022.0
20260501191145 12 145 4.8 14.5 0.00 0.10 0.03 72 1022.2
20260501190158 12 178 4.8 12.9 0.00 0.10 0.03 73 1022.2
20260501185126 12 191 6.4 14.5 0.00 0.10 0.03 73 1022.3
20260501184143 12 222 6.4 12.9 0.00 0.10 0.03 72 1022.5
20260501183145 12 247 8.0 17.7 0.00 0.10 0.03 72 1022.4
20260501182138 13 194 8.0 16.1 0.00 0.10 0.03 72 1022.5
20260501181134 13 212 11.3 16.1 0.00 0.10 0.03 68 1022.5
20260501180127 14 180 8.0 12.9 0.00 0.10 0.03 66 1022.5
20260501175145 14 161 11.3 16.1 0.00 0.10 0.03 66 1022.6
20260501174207 15 225 14.5 17.7 0.00 0.10 0.03 65 1022.7
20260501173138 15 249 16.1 19.3 0.00 0.10 0.03 66 1022.7
20260501172131 15 253 12.9 19.3 0.00 0.10 0.03 64 1022.8
20260501171130 15 216 16.1 19.3 0.00 0.10 0.03 63 1022.9
20260501170143 15 246 16.1 22.5 0.00 0.10 0.03 62 1023.0
20260501165206 15 202 12.9 19.3 0.00 0.10 0.03 65 1023.0
20260501164206 15 255 12.9 19.3 0.00 0.10 0.03 67 1023.1